STARLINK-34541, 64771

Orbit data source: Space-Track

STARLINK-34541, 64771 is a payload satellite owned by SpaceX/Seattle (US) in LEO that was launched on Tue, 08 Jul 2025 UTC via an FALCON 9 launch vehicle from the Air Force Eastern Test Range (AFETR). Payload-class satellites include a variety of spacecraft equipped with specific instruments for various scientific and technological missions. These include communications satellites like Starlink; space stations such as the ISS; scientific satellites like the Hubble; Earth observation satellites from companies like Planet Labs, Umbra, and HawkEye 360; GPS; miniature CubeSats for education and research; and military/defense satellites.

Loading next visibility...
Identifier
64771, 2025-147S
Orbit
LEO
Country
Flag of USUS
Related business
Manufacturer
SpaceX/Seattle
Mission
Operational Commercial Communications
Bus & Motor
STARLINK V2MO, Unknown motor
Mass
575 kg wet, ~530 kg dry
Launch date (UTC)
2025-07-08 (11 months ago)
Launch vehicle
FALCON 9
Launch site
Air Force Eastern Test Range (AFETR)
Object type
Payload
Rocket body
Debris
Shape & HBR
Box + 2 Pan, 17.7 m
Radar Cross Section
36.964 m², Large (>1 m²)

Expand to show TLE details & history
Last TLE update: 13 hours ago

TLE from 13 hours ago
0 STARLINK-34541
1 64771U 25147S   26171.29913721  .00016618  00000-0  50163-3 0  9995
2 64771  53.1589 124.5877 0001364  94.3349 265.7809 15.34414999 54418
Epoch: 2026-06-20T07:10Z
TLE epoch observation values (Epoch: 2026-06-20T07:10:45.454Z)
Latitude
-0.00008°
Longitude
108.38249°
Altitude
463.629 km
Speed
7.636 km/s
True Right ascension
08h 18m 21s
True Declination
0° 00' 00"
Sunlit
Object was in daylight at epoch
Visualization orbit readout
Latitude
Unknown
Longitude
Unknown
Altitude
Unknown
Speed
Unknown
Apparent Right ascension
Unknown
Apparent Declination
Unknown
Sunlit
N/A
Visualization observer readout
Local Sidereal Time
07:20:46
Azimuth
Unknown
Elevation
Unknown
Doppler factor
Unknown
Orbital elements
Apogee altitude
463.849 km
Perigee altitude
461.983 km
Semi-major axis
6,841.053 km
Eccentricity
0.00014
Inclination
53.1589°
RAAN
124.5877°
Arg. of periapsis
94.3349°
True anomaly
265.76531°
Mean anomaly
265.7809°
Eccentric anomaly
265.77311°
Mean motion
3.83582 °/min
Orbital period
93.85 mins
BSTAR
0.00050163
Loading maneuver chart data...
Computing Atmospheric mass density...
Loading historical data...
Loading historical data...
Loading historical data...
Loading historical data...
Loading historical data...
Loading historical data...
Loading historical data...

Documentation

Showing up to 5 results
|